Location: Gold Fund Mine
(38.3819°N, 119.0996°W)
Time: 17:17:26
(UTC+00:00)

Cosmos 2322 Rocket - Pass Details

Date: 18 September 2020
Orbit: 831 x 852 km, 71.0° (Epoch: 19 October)

Event Time Altitude Azimuth Distance (km) Brightness Sun altitude
Rises 13:00:20 0° 213° (SSW) 3,380 4.9 -8.8°
Reaches altitude 10° 13:02:49 10° 218° (SW) 2,453 4.2 -8.3°
Maximum altitude 13:08:20 55° 296° (WNW) 1,012 2.4 -7.2°
Drops below altitude 10° 13:13:55 10° 14° (NNE) 2,480 4.9 -6.2°
Sets 13:16:26 0° 19° (NNE) 3,422 5.7 -5.7°
